Location: Boiro
(42.6475°N, 8.8834°W)
Time: 04:16:18
(UTC+01:00)

Vanguard 1 Rocket - Pass Details

Date: 04 December 2021
Orbit: 651 x 4225 km, 34.3° (Epoch: 26 January)

Event Time Altitude Azimuth Distance (km) Brightness Sun altitude
Exits shadow 07:07:59 18° 262° (W) 4,430 10.3 -18.0°
Maximum altitude 07:20:56 63° 189° (S) 3,649 10.4 -15.7°
Drops below altitude 10° 07:45:48 10° 116° (ESE) 7,427 13.6 -11.4°
Sets 07:51:45 0° 113° (ESE) 8,423 14.6 -10.4°
